Weather observations for the past three days for
Prinses Juliana
Metric (Imperial)
Date Time (ast) Wind (kph) Vis. (km) Weather Sky Cond. Temperature (ºC) Relative Humidity Wind Chill (°C) Heat Index (°C) Pressure Precipitation (cm)
Air Dwpt 6 hour altimeter (cm) sea level (mb) 1 hr 3 hr 6 hr
Max. Min.
07 17:00 E 19 0.00 Partly Cloudy SCT018 29 22 66% 32 0 0.0
07 16:00 E 17 0.00 A Few Clouds FEW018 30 22 62% 33 0 0.0
07 15:00 E 15 0.00 Partly Cloudy SCT017 30 23 66% 34 0 0.0
07 14:00 E 17 0.00 Mostly Cloudy BKN017 30 22 62% 33 0 0.0
07 13:00 E 15 0.00 A Few Clouds FEW020 31 24 66% 37 0 0.0
07 12:00 E 15 0.00 A Few Clouds FEW021 31 24 66% 37 0 0.0
07 11:00 E 15 0.00 A Few Clouds FEW018 30 24 70% 35 0 0.0
07 10:00 E 15 0.00 Partly Cloudy SCT020 29 24 74% 34 0 0.0
07 09:00 E 17 0.00 Partly Cloudy SCT018 29 24 74% 34 0 0.0
07 08:00 E 15 0.00 A Few Clouds FEW018 29 24 74% 34 0 0.0
07 07:00 E 15 0.00 A Few Clouds FEW016 27 22 74% 29 0 0.0
07 06:00 E 11 0.00 A Few Clouds FEW016 26 22 79% 28 0 0.0
07 04:00 E 11 0.00 Partly Cloudy SCT016 26 22 79% 28 0 0.0
07 02:00 E 13 0.00 Partly Cloudy FEW016 SCT032 26 22 79% 28 0 0.0
07 00:00 NE 11 0.00 A Few Clouds FEW018 27 22 74% 29 0 0.0
06 22:00 E 15 0.00 A Few Clouds FEW016 27 24 84% 30 0 0.0
06 21:00 E 13 0.00 A Few Clouds FEW017 27 24 84% 30 0 0.0
06 20:00 E 11 0.00 A Few Clouds FEW017 27 23 79% 30 0 0.0
06 19:00 E 15 0.00 A Few Clouds FEW019 28 24 79% 32 0 0.0
06 18:00 E 17 0.00 A Few Clouds FEW020 28 24 79% 32 0 0.0
06 17:00 E 17 0.00 A Few Clouds FEW020 29 24 74% 34 0 0.0
06 16:00 E 19 0.00 A Few Clouds FEW020 30 25 75% 36 0 0.0
06 15:00 E 19 0.00 A Few Clouds FEW020 31 25 70% 38 0 0.0
06 14:00 E 19 0.00 A Few Clouds FEW020 31 24 66% 37 0 0.0
06 13:00 E 17 0.00 A Few Clouds FEW018 31 22 59% 35 0 0.0
06 12:00 E 19 0.00 A Few Clouds FEW018 31 22 59% 35 0 0.0
06 11:00 E 17 0.00 A Few Clouds FEW018 31 22 59% 35 0 0.0
06 10:00 E 20 0.00 A Few Clouds FEW018 30 23 66% 34 0 0.0
06 09:00 E 17 0.00 A Few Clouds FEW018 30 23 66% 34 0 0.0
06 08:00 E 19 0.00 A Few Clouds FEW018 29 22 66% 32 0 0.0
06 07:00 E 15 0.00 A Few Clouds FEW018 27 24 84% 30 0 0.0
06 06:00 E 11 0.00 A Few Clouds FEW016 26 22 79% 28 0 0.0
06 05:00 E 17 0.00 A Few Clouds FEW016 26 23 84% 28 0 0.0
06 04:00 E 11 0.00 Partly Cloudy SCT016 26 22 79% 28 0 0.0
06 03:00 E 9 0.00 Partly Cloudy SCT016 27 22 74% 29 0 0.0
06 02:00 E 15 0.00 A Few Clouds FEW018 27 24 84% 30 0 0.0
06 01:00 E 15 0.00 Partly Cloudy SCT018 27 24 84% 30 0 0.0
06 00:00 E 17 0.00 A Few Clouds FEW018 27 24 84% 30 0 0.0
05 23:00 E 13 0.00 A Few Clouds FEW018 27 24 84% 30 0 0.0
05 22:00 E 15 0.00 Partly Cloudy SCT018 27 23 79% 30 0 0.0
05 21:00 E 15 0.00 A Few Clouds FEW018 27 23 79% 30 0 0.0
05 20:00 E 17 0.00 Partly Cloudy SCT018 27 23 79% 30 0 0.0
05 19:00 E 15 0.00 A Few Clouds FEW018 27 22 74% 29 0 0.0
05 18:00 E 17 0.00 A Few Clouds FEW018 28 22 70% 31 0 0.0
05 17:00 SE 19 0.00 A Few Clouds FEW018 30 20 55% 32 0 0.0
05 16:00 E 22 0.00 A Few Clouds FEW018 30 22 62% 33 0 0.0
05 15:00 SE 24 0.00 A Few Clouds FEW018 30 22 62% 33 0 0.0
05 14:00 SE 26 0.00 A Few Clouds FEW018 30 23 66% 34 0 0.0
05 13:00 SE 28 0.00 A Few Clouds FEW018 30 25 75% 36 0 0.0
05 12:00 E 15 0.00 Partly Cloudy FEW014 SCT035 27 25 89% 31 0 0.0
05 11:00 E 20 0.00 Showers Rain FEW014 BKN035 27 25 89% 31 0 0.0
05 10:00 E 22 0.00 A Few Clouds FEW018 29 25 79% 35 0 0.0
05 09:00 E 19 0.00 Showers in Vicinity Showers Rain SCT016 29 24 74% 34 0 0.0
05 08:00 E 17 0.00 Showers Rain BKN018 28 24 79% 32 0 0.0
05 07:00 E 19 0.00 Partly Cloudy SCT018 27 24 84% 30 0 0.0
05 06:00 E 19 0.00 Mostly Cloudy FEW018 BKN030 27 24 84% 30 0 0.0
05 05:00 E 20 0.00 Partly Cloudy FEW016 SCT030 27 24 84% 30 0 0.0
05 04:00 E 20 0.00 Mostly Cloudy FEW016 BKN030 27 24 84% 30 0 0.0
05 03:00 E 17 0.00 Mostly Cloudy FEW018 BKN030 27 24 84% 30 0 0.0
05 02:00 E 15 0.00 Mostly Cloudy FEW016 BKN030 27 24 84% 30 0 0.0
05 01:00 E 15 0.00 Mostly Cloudy SCT016 BKN030 27 24 84% 30 0 0.0
05 00:00 E 17 0.00 A Few Clouds FEW016 27 24 84% 30 0 0.0
04 23:00 E 17 0.00 A Few Clouds FEW016 27 24 84% 30 0 0.0
04 22:00 E 15 0.00 A Few Clouds FEW016 27 24 84% 30 0 0.0
04 21:00 E 15 0.00 Partly Cloudy SCT016 28 24 79% 32 0 0.0
04 20:00 SE 11 0.00 Partly Cloudy FEW016 SCT035 27 25 89% 31 0 0.0
04 19:00 SE 19 0.00 Light Showers Rain BKN014 27 25 89% 31 0 0.0
Date Time (ast) Wind (kph) Vis. (km) Weather Sky Cond. Air Dwpt Max. Min. Relative Humidity Wind Chill (°C) Heat Index (°C) altimeter (cm) sea level (mb) 1 hr 3 hr 6 hr
6 hour
Temperature (ºC) Pressure Precipitation (cm)